記事タイトル:Comet C/2005 B1 (Christensen) 

最新の情報は「更新」や「再読み込み」ボタンを押してリロードしてご覧ください。

書き込み欄へ  ヘルプ
お名前: 佐藤 裕久   
Eric J. Christensen は、1月16.5日 UT、Catalinaの0.68-m Schmidt望遠鏡によるCatalina 
Sky Surveyの画像からp.a. 250°に10″の尾のある彗星を発見した。
直ちにNEO Confirmation Pageに公表され、1月16.5 日UT、J. Young (Table Mountain天文台、
0.6-m reflector + CCD)は、5″のコマとp.a. 240-260°に及ぶ25″の広い尾を観測した。
また、M. Tichy (Klet天文台、1.06-m KLENOT Telescope + CCD)は、J. Tichaと共に得た画像
から拡散状でp.a. 255°に尾があることがわかった。

発見位置は次のとおり、

     2005 UT             R.A. (2000) Decl.       Mag.
     Jan. 16.46322   14 28 27.36   +19 00 31.6   17.4

不確実な放物線軌道要素と位置推算表は次のとおり、

Orbital elements:
    C/2005 B1 (Christensen)
T 2005 Feb. 14.399 TT                                   MPC
q   5.28914              (2000.0)            P               Q
                   Peri.   34.624       -0.794410       +0.566786
                   Node   192.641       -0.425656       -0.263100
e   1.0            Incl.   86.060       +0.433277       +0.780726
From 22 observations 2005 Jan. 16-17.

Ephemeris:
    C/2005 B1 (Christensen)
Date    TT    R. A. (2000) Decl.     Delta      r     Elong.  Phase   m1
2005 01 10    14 25.38   +17 50.1    5.316    5.296    83.5    10.6  16.9
2005 01 20    14 29.98   +19 41.5    5.167    5.293    91.9    10.7  16.8
2005 01 30    14 33.58   +21 46.2    5.026    5.290   100.2    10.6  16.7
2005 02 09    14 36.02   +24 03.0    4.897    5.289   108.2    10.2  16.7
2005 02 19    14 37.16   +26 29.7    4.786    5.289   115.6     9.7  16.6
2005 03 01    14 36.91   +29 02.6    4.695    5.290   122.2     9.1  16.6

(IAUC 8466、MPEC 2005-B13)
[2005年1月18日 21時27分12秒]

この記事への返信をどうぞ。 自動改行されませんので、適当に改行を入れてください。
氏名
E-mail URL



記事一覧に戻る